Wind_Speed
41 41 42 38 35 35 36 35 33 33 33 35 34 33 34 34 31 29 29 27 26 26 26 27 24 23 24 24 25 25 25 25 28 25 22 19 16 16 18 19 19 20 22 24 25 25 26
45 44 43 44 43 39 38 38 35 35 36 36 36 36 34 34 34 34 33 35 31 27 26 25 25 26 26 30 30 30 28 25 25 28 27 24 20 20 18 20 22 21 24 25 25 26 27
45 39 40 47 48 45 44 43 39 38 38 39 38 37 37 37 37 37 37 36 37 32 30 27 28 30 31 32 33 34 32 29 26 26 29 28 25 25 22 23 23 24 24 25 27 29 30
53 55 57 56 56 54 52 48 45 46 43 43 44 44 44 41 42 42 40 37 41 39 35 35 34 36 35 38 39 37 33 31 29 28 29 31 30 30 29 28 28 27 26 25 34 27 33
61 61 61 62 58 58 58 54 53 53 49 47 48 49 48 50 47 45 43 42 41 42 41 41 40 40 38 39 40 37 35 33 33 32 30 31 32 33 33 35 33 31 31 30 34 34 36
64 64 65 63 62 61 63 59 57 57 53 52 53 54 53 52 52 50 51 49 48 46 47 47 46 43 43 39 40 39 35 36 35 35 34 34 35 34 35 37 37 34 32 35 36 38 41
66 68 67 65 66 65 65 64 63 59 59 53 53 55 56 55 55 54 54 55 53 54 49 49 50 44 44 43 40 40 37 38 37 37 37 40 38 39 40 44 40 42 43 46 44 44 48
70 68 69 67 66 68 68 64 67 65 62 61 58 57 55 56 56 56 57 57 55 58 53 49 48 48 46 43 43 40 38 39 38 38 42 41 43 45 46 41 44 45 47 49 50 51 53
74 74 72 69 65 63 63 65 66 67 63 60 62 60 58 58 58 59 57 57 57 55 55 50 48 48 45 43 42 42 39 39 40 40 41 42 42 46 44 42 44 45 48 50 54 56 56
79 78 75 72 71 70 66 70 68 64 63 65 65 62 60 58 60 59 58 59 58 56 53 55 48 50 47 43 42 41 40 40 39 40 42 43 42 43 46 47 48 50 51 54 55 57 57
80 82 80 78 74 75 76 75 71 70 70 70 66 63 62 60 57 60 56 52 53 52 52 56 56 48 45 43 40 39 38 39 40 41 42 45 45 46 49 51 54 54 56 56 57 58 59
69 70 69 69 70 70 70 70 71 65 65 63 65 62 54 56 54 52 53 57 51 51 53 52 50 47 44 41 39 39 39 41 44 46 45 45 48 48 51 53 53 53 53 53 52 51 55
70 67 65 63 62 62 60 59 58 57 59 56 55 58 63 63 54 45 44 49 51 53 52 54 52 49 48 48 46 44 44 44 44 45 46 49 48 49 49 49 47 47 47 47 45 34 38
73 71 68 64 62 62 59 58 56 54 53 50 51 51 52 54 55 49 52 52 46 44 46 45 48 48 47 46 46 46 45 45 46 46 44 43 43 49 47 36 38 39 40 36 33 32 29
77 76 73 70 68 65 63 60 58 56 53 51 49 50 50 49 48 49 49 50 51 46 44 43 44 47 47 47 44 45 45 44 46 48 45 42 40 39 36 34 28 29 30 28 32 33 38
73 73 73 71 68 66 64 62 59 58 55 52 51 49 48 46 45 47 47 46 50 45 43 44 48 47 47 46 45 45 43 47 44 41 40 37 38 34 35 28 27 27 26 29 29 30 27
69 67 66 67 66 64 62 60 60 58 55 54 52 50 47 47 47 47 44 46 49 47 48 49 49 46 44 44 44 40 42 43 40 37 33 34 36 33 31 26 27 22 29 30 26 25 28
63 61 60 59 58 57 57 58 56 57 55 54 52 49 47 48 49 47 46 49 45 47 49 48 46 40 40 40 40 41 37 38 34 32 32 34 33 29 27 29 31 32 31 29 27 31 31
59 58 57 56 56 53 52 55 55 55 55 54 52 49 49 50 48 46 48 50 45 43 41 40 41 41 38 36 38 34 33 34 34 32 33 31 31 31 30 31 32 28 25 27 28 31 30
58 58 57 56 53 53 51 54 55 55 55 55 53 51 51 51 48 47 46 44 42 41 37 36 36 34 35 35 34 32 32 33 32 33 32 31 31 32 31 30 30 33 25 21 24 33 31
57 56 56 54 51 46 48 50 53 55 54 55 53 51 49 49 46 43 36 34 34 33 36 36 34 33 34 31 30 31 32 31 31 32 32 33 32 34 34 35 33 30 32 36 38 35 36
57 55 53 53 51 47 46 40 47 53 53 53 51 49 48 48 46 43 39 35 35 34 33 32 30 31 29 28 30 32 31 30 30 30 32 33 33 34 33 31 30 28 27 29 28 30 33
60 56 53 51 44 48 47 48 50 51 49 48 46 47 45 44 42 40 37 35 35 35 32 31 31 31 28 31 31 27 29 31 31 30 31 31 31 36 32 33 28 31 20 20 26 27 31
61 55 53 57 54 54 51 48 45 41 50 41 43 41 41 41 38 37 37 35 35 35 33 32 30 30 30 31 29 30 31 31 31 29 28 30 31 31 31 27 28 19 20 18 21 25 29
60 56 51 61 51 55 47 52 49 45 44 46 40 40 41 40 38 37 36 33 33 32 31 31 32 30 30 28 28 29 30 31 29 28 28 28 21 20 22 21 21 19 16 19 23 22 29
61 60 51 62 56 54 48 44 42 38 36 43 42 43 42 39 38 37 35 33 32 31 33 31 31 28 28 28 28 29 31 31 30 27 24 21 17 20 19 18 17 6 20 20 22 23 20
60 56 60 62 52 50 47 40 41 38 33 35 50 43 42 40 40 35 33 31 32 31 31 29 28 28 29 28 28 29 28 27 29 23 17 15 19 18 15 19 19 17 22 21 22 18 14
56 50 60 52 50 47 46 38 36 31 27 24 43 42 41 40 39 35 33 32 31 31 29 28 29 27 29 27 25 24 24 20 19 16 21 16 19 15 15 18 17 18 21 22 19 18 15
53 42 55 44 41 43 42 36 32 31 27 24 30 39 44 48 39 35 33 31 32 32 30 29 28 28 26 24 22 17 17 15 13 15 17 20 19 17 15 16 16 19 21 23 21 18 16
Wind_Direction
260 261 265 264 264 266 269 270 273 276 275 271 273 271 268 265 267 266 276 265 264 259 260 263 271 276 279 278 285 286 290 290 292 288 282 277 277 275 274 268 264 259 256 258 260 260 261
265 263 262 261 261 263 266 267 270 273 278 271 271 270 270 270 268 267 269 265 264 263 266 267 273 276 281 285 285 288 284 282 285 285 281 280 277 274 271 274 270 264 266 265 263 262 263
249 243 245 258 265 263 263 268 270 271 272 270 268 262 269 272 275 270 269 262 264 262 267 267 271 280 283 286 287 285 283 278 276 276 277 276 277 278 274 271 271 270 267 270 267 264 265
257 257 252 260 265 265 265 265 268 266 267 268 264 265 266 267 271 274 266 260 260 267 271 271 272 278 284 286 285 280 278 273 270 267 269 273 274 274 275 272 271 274 274 272 270 267 267
254 256 256 260 263 266 266 267 269 267 267 265 264 264 265 268 270 269 263 263 263 265 270 273 274 277 281 283 281 277 275 271 269 270 267 268 269 269 272 274 272 273 269 269 271 272 270
256 256 258 260 263 265 267 267 264 265 265 266 264 264 265 266 266 268 266 264 265 266 272 273 274 275 278 278 275 274 272 271 268 269 270 268 270 272 273 272 270 263 264 267 265 270 270
254 257 258 260 263 263 265 266 266 267 268 266 265 265 265 266 266 266 266 268 268 268 270 275 276 275 275 275 271 272 269 268 269 270 270 270 271 272 269 270 272 267 266 268 268 267 268
255 256 259 262 263 264 265 264 266 267 269 271 269 269 268 268 268 267 265 265 268 270 271 271 271 271 271 272 273 268 267 268 268 268 268 270 271 267 272 274 273 273 270 270 270 270 269
256 256 256 258 262 262 266 267 267 273 271 271 273 275 274 274 272 270 269 269 270 269 272 271 270 270 270 269 269 270 269 270 270 268 269 272 274 276 276 274 274 273 273 273 273 274 276
258 257 259 258 258 254 252 259 263 263 263 267 273 275 277 277 274 271 269 269 271 272 269 270 265 266 268 269 266 268 268 268 268 269 271 273 274 275 277 278 276 275 274 274 277 276 276
267 265 263 264 264 264 262 264 267 265 267 269 271 273 273 274 275 274 267 262 262 263 264 266 268 268 266 266 266 266 267 267 269 270 272 277 278 278 280 277 278 277 277 276 275 274 275
260 262 260 260 262 262 265 268 272 272 273 271 271 269 272 274 269 269 271 263 254 253 254 257 262 266 266 264 264 264 265 267 270 272 273 271 273 275 273 274 275 276 277 277 277 278 276
260 259 258 258 258 258 258 259 261 261 264 265 264 265 263 264 264 271 272 266 258 260 263 262 260 260 265 266 267 268 269 271 272 273 275 275 276 276 277 277 280 279 278 279 278 275 282
259 258 257 255 254 256 256 256 256 257 258 261 264 262 263 262 261 252 257 263 264 267 263 267 265 262 264 266 268 271 272 272 270 274 276 278 279 281 279 282 280 281 285 285 283 280 275
256 256 255 255 255 255 255 255 255 256 255 256 257 258 259 256 255 247 247 247 253 254 258 258 259 261 263 266 266 269 271 273 274 277 277 276 276 272 282 282 283 289 289 286 284 289 284
254 255 254 253 253 254 254 254 254 255 256 256 256 255 256 256 252 248 246 250 248 247 249 253 257 256 261 262 264 267 267 269 272 273 274 274 273 274 279 287 288 290 289 290 289 290 281
254 252 252 252 252 250 250 250 251 252 252 252 253 252 252 250 249 248 252 252 251 252 253 259 259 259 257 258 260 260 265 268 269 272 270 269 274 278 283 292 293 290 298 294 279 265 273
247 246 244 245 247 246 244 245 246 247 248 249 249 247 248 247 247 248 249 250 252 255 257 256 255 255 254 253 255 259 261 262 266 266 266 265 271 277 288 291 293 288 281 265 269 271 268
240 237 237 239 242 241 236 237 238 240 243 243 243 242 241 242 245 246 247 249 251 252 249 250 250 252 256 258 258 258 260 260 265 263 261 266 277 283 290 292 294 290 278 266 261 267 264
236 232 231 233 235 239 235 235 234 235 237 238 238 235 235 238 238 241 246 249 250 245 245 251 252 253 253 254 256 258 255 257 257 261 269 271 277 284 287 284 273 276 262 251 256 262 272
230 230 227 227 230 226 238 236 236 232 232 233 233 234 232 234 237 240 243 242 239 240 244 247 249 250 251 253 256 257 255 258 262 264 267 272 278 280 281 285 285 279 268 256 251 272 271
228 225 224 222 227 224 235 231 239 229 231 231 232 232 230 232 232 233 234 235 238 242 241 242 246 250 253 254 251 254 259 263 267 268 268 271 279 278 285 283 280 269 267 267 266 273 273
223 220 218 211 214 219 232 227 234 233 229 233 232 233 231 229 230 230 232 232 231 233 233 240 248 253 252 251 255 260 267 270 270 269 274 278 275 279 276 283 269 268 285 265 263 269 275
217 213 210 208 208 217 230 230 229 232 227 227 229 230 232 233 232 229 228 229 233 236 242 247 248 250 249 253 260 264 266 267 267 270 274 273 280 275 276 274 268 284 270 275 272 271 273
209 206 200 210 206 214 227 213 227 234 237 223 227 226 225 225 225 226 227 231 235 238 242 245 248 245 250 255 262 266 268 268 271 273 276 272 269 286 284 276 271 266 276 283 266 268 277
200 198 203 206 205 212 216 211 224 237 233 232 221 228 228 228 228 227 229 230 235 236 240 242 244 248 251 257 260 264 267 273 277 283 273 256 268 287 283 273 261 281 258 265 260 281 271
189 192 201 202 201 210 210 213 220 229 239 235 222 224 229 230 232 231 233 231 232 235 238 238 242 248 253 257 262 265 270 272 274 274 253 266 276 283 267 256 244 243 265 267 272 268 261
182 185 193 195 195 206 209 213 218 224 237 229 219 222 224 228 232 230 231 230 232 231 231 233 239 245 250 254 260 265 273 271 261 247 243 266 276 282 263 260 261 251 262 271 276 253 261
182 184 191 199 202 202 206 209 213 228 235 237 228 225 227 229 230 229 227 227 227 226 226 232 237 244 251 256 257 258 261 253 242 247 262 264 273 261 259 259 268 265 266 274 279 254 266
Height
5786 5788 5789 5788 5791 5792 5795 5795 5795 5795 5795 5798 5798 5800 5802 5802 5802 5802 5804 5803 5802 5802 5804 5805 5805 5805 5803 5803 5803 5803 5805 5805 5804 5803 5802 5800 5800 5801 5801 5801 5801 5799 5798 5799 5799 5799 5798
5778 5779 5779 5780 5781 5784 5787 5788 5788 5789 5789 5791 5792 5793 5795 5795 5796 5797 5797 5797 5798 5798 5798 5799 5800 5798 5798 5798 5797 5798 5798 5798 5798 5799 5798 5798 5796 5795 5795 5796 5796 5795 5794 5794 5793 5793 5793
5769 5771 5769 5771 5772 5774 5777 5780 5782 5782 5782 5783 5783 5785 5786 5787 5789 5789 5790 5791 5791 5791 5791 5792 5792 5793 5792 5792 5792 5790 5791 5792 5792 5792 5793 5793 5793 5792 5791 5790 5791 5790 5790 5789 5788 5788 5787
5758 5761 5762 5762 5764 5765 5768 5770 5771 5772 5773 5774 5775 5776 5777 5779 5779 5782 5783 5782 5783 5784 5785 5785 5785 5784 5786 5785 5785 5785 5784 5784 5784 5784 5785 5787 5787 5786 5786 5784 5785 5785 5785 5784 5779 5783 5779
5746 5748 5750 5752 5755 5756 5757 5761 5762 5763 5765 5765 5765 5767 5769 5770 5771 5773 5774 5774 5776 5774 5777 5776 5776 5777 5778 5779 5778 5778 5778 5777 5777 5777 5778 5779 5779 5779 5780 5779 5778 5779 5779 5778 5775 5774 5773
5734 5736 5738 5741 5742 5745 5746 5748 5750 5751 5752 5756 5757 5757 5759 5760 5762 5762 5765 5765 5766 5765 5768 5767 5766 5769 5769 5770 5770 5770 5770 5770 5769 5770 5772 5771 5771 5772 5772 5771 5772 5773 5769 5770 5770 5769 5764
5718 5721 5725 5727 5728 5731 5733 5735 5736 5737 5742 5742 5745 5748 5749 5750 5752 5752 5754 5757 5758 5758 5757 5759 5759 5760 5758 5760 5760 5762 5762 5761 5762 5764 5763 5762 5764 5764 5763 5760 5763 5763 5763 5761 5762 5761 5757
5705 5708 5711 5713 5715 5717 5720 5720 5724 5724 5727 5731 5733 5735 5737 5740 5742 5743 5743 5744 5745 5747 5749 5748 5748 5750 5748 5750 5752 5750 5753 5753 5754 5754 5752 5754 5754 5752 5752 5755 5752 5752 5751 5752 5751 5749 5747
5688 5692 5695 5700 5703 5704 5707 5709 5710 5714 5715 5718 5722 5725 5726 5728 5730 5733 5733 5734 5733 5732 5735 5740 5741 5740 5741 5741 5741 5741 5744 5743 5743 5744 5744 5744 5744 5742 5744 5743 5742 5742 5740 5740 5738 5737 5736
5671 5675 5680 5685 5688 5692 5694 5697 5699 5701 5704 5706 5708 5712 5715 5715 5719 5720 5721 5723 5723 5723 5723 5726 5730 5730 5731 5732 5731 5732 5733 5734 5734 5734 5734 5734 5734 5735 5732 5732 5731 5731 5730 5727 5727 5725 5725
5652 5657 5662 5667 5672 5676 5678 5682 5686 5690 5692 5695 5697 5701 5701 5704 5706 5708 5710 5709 5710 5711 5713 5713 5716 5718 5720 5722 5723 5722 5722 5723 5723 5723 5725 5724 5725 5724 5724 5722 5719 5719 5716 5715 5712 5711 5710
5635 5640 5645 5649 5655 5660 5664 5667 5670 5673 5677 5681 5684 5687 5690 5692 5694 5696 5697 5697 5697 5698 5697 5703 5705 5706 5707 5708 5710 5710 5712 5713 5713 5713 5713 5713 5711 5712 5710 5708 5706 5705 5703 5702 5700 5698 5695
5617 5623 5629 5635 5639 5644 5649 5652 5658 5659 5663 5666 5670 5672 5674 5680 5685 5684 5685 5686 5688 5688 5692 5693 5695 5696 5695 5695 5698 5700 5700 5701 5701 5702 5701 5699 5699 5697 5697 5695 5693 5693 5691 5690 5689 5689 5687
5598 5605 5611 5618 5624 5628 5633 5637 5641 5645 5647 5652 5656 5659 5661 5664 5667 5667 5670 5675 5677 5681 5682 5682 5685 5684 5682 5685 5685 5688 5688 5689 5689 5690 5690 5688 5687 5684 5684 5687 5683 5683 5683 5682 5679 5680 5681
5579 5585 5593 5599 5607 5611 5617 5622 5626 5630 5633 5638 5641 5645 5649 5654 5654 5656 5657 5659 5665 5668 5670 5671 5673 5671 5672 5674 5678 5679 5676 5679 5677 5678 5679 5676 5677 5674 5674 5673 5675 5674 5676 5674 5670 5671 5664
5560 5566 5572 5581 5589 5595 5601 5606 5611 5616 5620 5624 5628 5633 5638 5642 5643 5644 5646 5653 5651 5656 5659 5661 5661 5660 5661 5663 5667 5668 5667 5667 5668 5668 5666 5667 5667 5665 5664 5667 5668 5667 5668 5666 5662 5660 5656
5540 5547 5553 5561 5570 5578 5585 5591 5597 5601 5607 5611 5614 5621 5627 5629 5630 5634 5640 5643 5642 5647 5648 5651 5648 5650 5650 5653 5655 5658 5659 5655 5659 5657 5658 5658 5658 5660 5658 5660 5660 5660 5656 5655 5654 5654 5650
5520 5529 5536 5542 5551 5560 5568 5575 5582 5587 5593 5597 5601 5608 5617 5616 5619 5624 5628 5630 5634 5636 5637 5637 5637 5638 5640 5644 5647 5647 5650 5646 5651 5651 5651 5649 5651 5653 5653 5651 5651 5650 5650 5648 5647 5646 5643
5502 5511 5520 5528 5534 5543 5551 5558 5566 5572 5578 5582 5588 5595 5600 5603 5608 5613 5616 5617 5621 5623 5624 5625 5628 5629 5633 5635 5636 5639 5640 5641 5641 5642 5642 5644 5645 5643 5646 5642 5640 5640 5638 5637 5637 5635 5632
5485 5495 5504 5514 5522 5528 5536 5544 5551 5558 5564 5569 5575 5581 5587 5592 5596 5601 5604 5607 5611 5613 5613 5616 5620 5624 5624 5626 5628 5631 5631 5632 5633 5633 5635 5636 5637 5636 5636 5636 5633 5633 5631 5630 5629 5625 5626
5470 5479 5489 5499 5509 5517 5524 5531 5538 5545 5550 5554 5564 5569 5576 5582 5587 5592 5594 5600 5602 5604 5606 5609 5613 5615 5616 5620 5621 5621 5622 5624 5626 5627 5627 5626 5628 5627 5626 5625 5624 5623 5621 5619 5619 5620 5616
5454 5466 5477 5488 5498 5507 5514 5520 5526 5532 5537 5543 5553 5560 5565 5569 5575 5581 5585 5590 5593 5595 5599 5602 5605 5607 5610 5612 5612 5613 5615 5616 5618 5618 5618 5618 5620 5617 5616 5614 5612 5610 5610 5610 5612 5612 5610
5437 5451 5464 5476 5488 5496 5504 5510 5516 5521 5528 5535 5544 5549 5555 5560 5566 5571 5577 5581 5584 5586 5593 5595 5598 5600 5603 5603 5604 5607 5608 5608 5610 5609 5610 5611 5609 5608 5606 5604 5602 5600 5603 5604 5604 5605 5605
5423 5438 5452 5466 5478 5488 5494 5500 5507 5513 5521 5528 5536 5541 5548 5553 5558 5564 5569 5573 5576 5580 5584 5588 5591 5593 5594 5595 5598 5599 5600 5600 5600 5602 5603 5601 5600 5598 5596 5595 5593 5598 5597 5598 5598 5598 5597
5410 5427 5442 5456 5466 5479 5485 5493 5499 5507 5513 5520 5527 5532 5539 5543 5550 5556 5560 5566 5570 5574 5578 5581 5583 5586 5587 5590 5591 5591 5592 5592 5593 5594 5594 5593 5593 5590 5588 5588 5589 5590 5592 5595 5593 5594 5591
5398 5416 5428 5442 5457 5469 5478 5486 5493 5499 5506 5513 5518 5524 5531 5537 5543 5549 5554 5559 5564 5568 5570 5573 5575 5579 5581 5582 5584 5584 5584 5585 5586 5586 5585 5586 5585 5585 5583 5583 5584 5588 5587 5588 5587 5588 5585
5391 5408 5421 5435 5450 5461 5471 5479 5487 5493 5500 5504 5510 5516 5522 5529 5535 5543 5549 5554 5557 5560 5563 5567 5570 5572 5573 5575 5576 5576 5578 5579 5579 5580 5581 5580 5580 5579 5578 5578 5580 5583 5581 5583 5584 5585 5581
5385 5402 5416 5430 5444 5455 5465 5473 5481 5488 5493 5497 5504 5508 5515 5521 5528 5535 5541 5546 5549 5553 5557 5560 5563 5565 5567 5569 5570 5571 5572 5572 5572 5574 5575 5576 5575 5574 5575 5575 5576 5578 5577 5579 5578 5577 5577
5384 5400 5416 5427 5438 5449 5460 5468 5476 5482 5488 5491 5495 5501 5506 5513 5521 5528 5533 5538 5542 5545 5550 5553 5556 5558 5561 5563 5565 5566 5567 5567 5568 5569 5570 5570 5572 5573 5574 5573 5572 5572 5572 5572 5572 5572 5572